DW4393 Weather Reports


time (UTC)temp
C
wind
direction
speed
KPH
gust
KPH
rain 1hr
cm
rain 24hr
cm
rain mn
cm
humidity
%
barometer
mb
20260504160304 20 190 1.6 4.8 0.00 0.00 0.00 46 1017.9
20260504150803 18 194 0.0 1.6 0.00 0.00 0.00 55 1018.3
20260504150303 18 171 0.0 3.2 0.00 0.00 0.00 55 1018.3
20260504141304 16 176 0.0 0.0 0.00 0.00 0.00 63 1018.5
20260504140803 16 176 0.0 4.8 0.00 0.00 0.00 61 1018.5
20260504140304 16 179 1.6 3.2 0.00 0.00 0.00 61 1018.5
20260504130803 11 202 0.0 0.0 0.00 0.00 0.00 91 1018.6
20260504110304 5 202 0.0 0.0 0.00 0.00 0.00 93 1018.2
20260504081303 6 202 0.0 0.0 0.00 0.00 0.00 92 1018.1
20260504080804 6 202 0.0 0.0 0.00 0.00 0.00 92 1018.0
20260504080303 6 202 0.0 0.0 0.00 0.00 0.00 92 1018.0
20260504070304 6 202 0.0 0.0 0.00 0.00 0.00 91 1018.4
20260504044803 7 202 0.0 0.0 0.00 0.00 0.00 88 1018.6
20260504044304 7 202 0.0 0.0 0.00 0.00 0.00 88 1018.6
20260504043304 8 202 0.0 0.0 0.00 0.00 0.00 88 1018.5
20260504041804 8 202 0.0 0.0 0.00 0.00 0.00 87 1018.6
20260504041305 8 202 0.0 0.0 0.00 0.00 0.00 87 1018.5
20260504040822 8 202 0.0 0.0 0.00 0.00 0.00 86 1018.5
20260504040304 8 202 0.0 0.0 0.00 0.00 0.00 86 1018.6
20260504034804 9 202 0.0 0.0 0.00 0.00 0.00 85 1018.5
20260504034304 9 202 0.0 0.0 0.00 0.00 0.00 85 1018.5
20260504033804 9 202 0.0 0.0 0.00 0.00 0.00 84 1018.4
20260504031304 10 202 0.0 0.0 0.00 0.00 0.00 82 1018.6
20260504030804 10 202 0.0 0.0 0.00 0.00 0.00 82 1018.5
20260504030305 10 202 0.0 0.0 0.00 0.00 0.00 82 1018.3
20260504024804 10 202 0.0 0.0 0.00 0.00 0.00 80 1018.4
20260504024304 10 202 0.0 0.0 0.00 0.00 0.00 81 1018.3
20260504023804 10 202 0.0 0.0 0.00 0.00 0.00 80 1018.2
20260504023304 11 202 0.0 1.6 0.00 0.00 0.00 80 1018.1
20260504021304 11 202 0.0 0.0 0.00 0.00 0.00 78 1017.8
20260504020804 11 202 0.0 0.0 0.00 0.00 0.00 77 1017.8
20260504020307 11 202 0.0 0.0 0.00 0.00 0.00 76 1017.8
20260504014802 12 202 0.0 0.0 0.00 0.00 0.00 74 1017.6
20260504014303 12 202 0.0 0.0 0.00 0.00 0.00 74 1017.5
20260504013303 12 202 0.0 0.0 0.00 0.00 0.00 72 1017.4
20260504011803 12 202 0.0 0.0 0.00 0.00 0.00 70 1017.3
20260504011302 13 202 0.0 0.0 0.00 0.00 0.00 67 1017.3
20260504010303 13 202 0.0 0.0 0.00 0.00 0.00 65 1017.2
20260504004802 14 202 0.0 0.0 0.00 0.00 0.00 62 1017.0
20260504004303 15 202 0.0 0.0 0.00 0.00 0.00 61 1017.0
20260504003803 15 202 0.0 0.0 0.00 0.00 0.00 61 1017.0
20260504003302 15 202 0.0 0.0 0.00 0.00 0.00 59 1016.9
20260504001303 16 202 0.0 0.0 0.00 0.00 0.00 53 1016.8
20260504000803 16 202 0.0 0.0 0.00 0.00 0.00 52 1016.9
20260504000303 17 202 0.0 0.0 0.00 0.00 0.00 51 1016.7
20260503234803 17 202 0.0 0.0 0.00 0.00 0.00 46 1016.7
20260503233803 18 202 0.0 0.0 0.00 0.00 0.00 39 1016.7
20260503233302 18 202 0.0 0.0 0.00 0.00 0.00 40 1016.6
20260503231303 19 202 0.0 0.0 0.00 0.00 0.00 41 1016.7
20260503230803 19 202 0.0 0.0 0.00 0.00 0.00 41 1016.7
20260503230303 19 202 0.0 1.6 0.00 0.00 0.00 37 1016.7
20260503224803 20 175 0.0 0.0 0.00 0.00 0.00 39 1016.8
20260503224303 20 180 1.6 1.6 0.00 0.00 0.00 36 1016.7
20260503223803 20 40 0.0 1.6 0.00 0.00 0.00 38 1016.7
20260503223303 20 40 1.6 8.0 0.00 0.00 0.00 36 1016.7
20260503221303 20 183 1.6 4.8 0.00 0.00 0.00 34 1016.8
20260503220803 20 190 0.0 3.2 0.00 0.00 0.00 35 1016.8
20260503220302 20 234 0.0 4.8 0.00 0.00 0.00 40 1016.8
20260503214303 20 212 0.0 3.2 0.00 0.00 0.00 32 1016.9
20260503213803 21 175 1.6 4.8 0.00 0.00 0.00 35 1017.0
20260503213303 21 227 1.6 4.8 0.00 0.00 0.00 37 1017.0
20260503211803 21 201 1.6 4.8 0.00 0.00 0.00 34 1017.1
20260503210803 21 182 3.2 4.8 0.00 0.00 0.00 33 1017.1
20260503210303 21 219 1.6 9.7 0.00 0.00 0.00 35 1017.2
20260503204803 21 224 3.2 8.0 0.00 0.00 0.00 34 1017.2
20260503204303 21 250 1.6 4.8 0.00 0.00 0.00 38 1017.3
20260503203803 21 63 1.6 3.2 0.00 0.00 0.00 36 1017.4
20260503201803 21 166 1.6 3.2 0.00 0.00 0.00 36 1017.8
20260503201303 21 183 3.2 4.8 0.00 0.00 0.00 36 1017.9
20260503200803 21 216 3.2 4.8 0.00 0.00 0.00 36 1017.9
20260503200303 21 216 3.2 8.0 0.00 0.00 0.00 34 1018.0
20260503194803 21 249 1.6 4.8 0.00 0.00 0.00 37 1018.2
20260503194303 21 82 1.6 3.2 0.00 0.00 0.00 33 1018.2
20260503193803 21 112 1.6 4.8 0.00 0.00 0.00 32 1018.4
20260503193303 21 255 1.6 4.8 0.00 0.00 0.00 36 1018.5
20260503191303 21 149 1.6 4.8 0.00 0.00 0.00 33 1018.8
20260503190804 21 36 1.6 4.8 0.00 0.00 0.00 37 1019.0
20260503190303 21 242 1.6 8.0 0.00 0.00 0.00 38 1019.0
20260503184304 20 218 1.6 3.2 0.00 0.00 0.00 38 1019.3
20260503183303 20 252 1.6 4.8 0.00 0.00 0.00 37 1019.5
20260503181803 20 251 1.6 4.8 0.00 0.00 0.00 45 1019.5
20260503180803 19 214 3.2 4.8 0.00 0.00 0.00 40 1019.7
20260503174803 18 114 1.6 3.2 0.00 0.00 0.00 43 1019.7
20260503173803 19 147 1.6 3.2 0.00 0.00 0.00 42 1020.0
20260503173303 18 205 1.6 4.8 0.00 0.00 0.00 38 1020.0
20260503171303 18 136 1.6 3.2 0.00 0.00 0.00 42 1020.2
20260503170304 18 13 1.6 8.0 0.00 0.00 0.00 41 1020.3